This is the latest recevied weather packets stored in our database for station/object N7CW. If no packets are shown the sender has not sent any weather packets the latest 10 day(s).
| Time | Temp. | Humidity | Pressure | Rain* | Wind** | Luminosity | Snow |
|---|---|---|---|---|---|---|---|
| 1777775739 | 17.22° C | 32% | 1017.8 hPa | 0 mm | - | 0 W/m² | - |
| 1777775437 | 17.22° C | 32% | 1017.4 hPa | 0 mm | - | 0 W/m² | - |
| 1777775133 | 17.78° C | 31% | 1017.7 hPa | 0 mm | - | 1 W/m² | - |
| 1777774827 | 17.78° C | 31% | 1017.7 hPa | 0 mm | - | 2 W/m² | - |
| 1777774524 | 18.33° C | 31% | 1017.4 hPa | 0 mm | - | 3 W/m² | - |
| 1777774221 | 18.33° C | 31% | 1017.4 hPa | 0 mm | - | 5 W/m² | - |
| 1777773919 | 18.33° C | 31% | 1017.4 hPa | 0 mm | - | 7 W/m² | - |
| 1777769979 | 20° C | 29% | 1017.3 hPa | 0 mm | - | 61 W/m² | - |
| 1777767555 | 21.67° C | 27% | 1017.2 hPa | 0 mm | - | 262 W/m² | - |
| 1777766646 | 21.11° C | 26% | 1017.2 hPa | 0 mm | - | 115 W/m² | - |
| 1777766040 | 20.56° C | 26% | 1017.2 hPa | 0 mm | - | 122 W/m² | - |
| 1777765737 | 20.56° C | 27% | 1017.3 hPa | 0 mm | - | 131 W/m² | - |
| 1777764523 | 21.11° C | 26% | 1017.2 hPa | 0 mm | - | 164 W/m² | - |
| 1777763916 | 21.11° C | 25% | 1017.1 hPa | 0 mm | - | 135 W/m² | - |
| 1777763312 | 21.11° C | 25% | 1017.2 hPa | 0 mm | - | 160 W/m² | - |
| 1777761186 | 22.78° C | 23% | 1017.5 hPa | 0 mm | - | 632 W/m² | - |
| 1777760580 | 21.67° C | 24% | 1017.7 hPa | 0 mm | - | 697 W/m² | - |
| 1777760276 | 22.22° C | 23% | 1017.7 hPa | 0 mm | - | 588 W/m² | - |
| 1777759669 | 21.67° C | 24% | 1017.9 hPa | 0 mm | - | 570 W/m² | - |
| 1777759062 | 22.22° C | 23% | 1017.8 hPa | 0 mm | - | 797 W/m² | - |
| 1777758759 | 21.67° C | 24% | 1017.9 hPa | 0 mm | - | 661 W/m² | - |
| 1777757850 | 21.11° C | 25% | 1018.1 hPa | 0 mm | - | 209 W/m² | - |
| 1777757548 | 20.56° C | 25% | 1018.2 hPa | 0 mm | - | 672 W/m² | - |
| 1777756939 | 21.67° C | 24% | 1018.2 hPa | 0 mm | - | 309 W/m² | - |
| 1777755422 | 20.56° C | 25% | 1018.7 hPa | 0 mm | - | 160 W/m² | - |
* Rain latest hour (hover to see other rain measurements)
** Current wind speed in m/s (hover to see current wind gust speed)